Weather History for KLUF - April, 2014

Change the Weather History Date:

Monday, April 7, 2014

  Actual Average Record
Temperature  
Mean Temperature 72 °F -  
Max Temperature 87 °F 85 °F 105 °F (1989)
Min Temperature 57 °F 49 °F 34 °F (1922)
Cooling Degree Days 7    
Growing Degree Days 22 (Base 50)    
Moisture  
Dew Point 27 °F    
Average Humidity 20    
Maximum Humidity 35    
Minimum Humidity 8    
Precipitation  
Precipitation 0.00 in - - ()
Sea Level Pressure  
Sea Level Pressure 30.02 in    
Wind  
Wind Speed 5 mph (NW)    
Max Wind Speed 13 mph    
Max Gust Speed -    
Visibility 10 miles    
Events      
Averages and records for this station are not official NWS values.
T = Trace of Precipitation, MM = Missing Value Source: NWS Daily Summary

Daily Weather History Graph

Daily Weather History Graph

Search for Another Location

Airport or City:

Trip Planner

Search our weather history database for the weather conditions in past years. The results will help you decide how hot, cold, wet, or windy it might be!

Date:

Astronomy

Apr. 07, 2014 Rise Set
Actual Time 6:09 AM MST 6:54 PM MST
Civil Twilight 5:43 AM MST 7:19 PM MST
Nautical Twilight 5:14 AM MST 7:49 PM MST
Astronomical Twilight 4:43 AM MST 8:20 PM MST
Moon 12:15 PM MST (4/7) 1:26 AM MST (4/7)
Length of Visible Light 13h 35m
Length of Day
12h 45m
First Quarter, 54% of the Moon is Illuminated
Apr 7
First Quarter
Apr 15
Full
Apr 22
Last Quarter
Apr 28
New
May 6
First Quarter

Hourly Weather History & Observations

Time (MST) Temp. Dew Point Humidity Pressure Visibility Wind Dir Wind Speed Gust Speed Precip Events Conditions
12:58 AM 65.5 °F 24.6 °F 21% 29.94 in 10.0 mi NW 4.6 mph - N/A   Clear
1:58 AM 59.4 °F 28.6 °F 31% 29.95 in 10.0 mi NW 8.1 mph - N/A   Clear
2:58 AM 58.6 °F 27.5 °F 30% 29.96 in 10.0 mi North 2.3 mph - N/A   Clear
3:58 AM 57.9 °F 27.9 °F 32% 29.98 in 10.0 mi NE 4.6 mph - N/A   Clear
4:58 AM 58.8 °F 29.3 °F 33% 29.99 in 10.0 mi NW 9.2 mph - N/A   Clear
5:58 AM 57.0 °F 29.1 °F 35% 30.02 in 10.0 mi North 4.6 mph - N/A   Clear
6:58 AM 59.4 °F 28.4 °F 31% 30.05 in 10.0 mi NNW 6.9 mph - N/A   Clear
7:58 AM 64.0 °F 29.1 °F 27% 30.07 in 10.0 mi Calm Calm - N/A   Clear
8:58 AM 71.8 °F 30.2 °F 21% 30.08 in 10.0 mi Calm Calm - N/A   Clear
9:58 AM 78.4 °F 25.3 °F 14% 30.08 in 10.0 mi North 6.9 mph - N/A   Clear
10:58 AM 79.7 °F 25.2 °F 13% 30.08 in 10.0 mi ENE 9.2 mph - N/A   Clear
11:58 AM 81.0 °F 24.3 °F 12% 30.08 in 10.0 mi Variable 2.3 mph - N/A   Clear
12:58 PM 84.2 °F 24.8 °F 11% 30.06 in 10.0 mi Variable 2.3 mph - N/A   Clear
1:58 PM 85.1 °F 23.7 °F 11% 30.04 in 10.0 mi Variable 3.5 mph - N/A   Clear
2:58 PM 86.9 °F 23.0 °F 10% 30.01 in 10.0 mi West 6.9 mph - N/A   Clear
3:58 PM 87.6 °F 19.9 °F 8% 29.99 in 10.0 mi WNW 3.5 mph - N/A   Clear
4:58 PM 87.4 °F 25.0 °F 10% 29.99 in 10.0 mi SW 12.7 mph - N/A   Clear
5:58 PM 86.0 °F 23.9 °F 10% 29.98 in 10.0 mi SW 12.7 mph - N/A   Clear
6:58 PM 81.7 °F 26.8 °F 13% 29.99 in 10.0 mi SW 8.1 mph - N/A   Clear
7:58 PM 75.7 °F 30.4 °F 19% 30.00 in 10.0 mi WSW 10.4 mph - N/A   Clear
8:58 PM 76.1 °F 26.1 °F 16% 30.00 in 10.0 mi WSW 4.6 mph - N/A   Clear
9:58 PM 72.9 °F 27.5 °F 19% 30.01 in 10.0 mi SSW 8.1 mph - N/A   Clear
10:58 PM 70.5 °F 28.4 °F 21% 30.04 in 7.0 mi North 5.8 mph - N/A   Clear
11:58 PM 66.9 °F 29.1 °F 24% 30.04 in 9.0 mi NNE 1.2 mph - N/A   Clear